Showing default

COSMOS 2605, 67679

Orbit data source: Space-Track

COSMOS 2605, 67679 is a payload satellite owned by VVKO VKS (CIS) in SSO that was launched on Thu, 05 Feb 2026 UTC via a SOYUZ-2-1B launch vehicle from the Plesetsk Missile And Space Complex (PKMTR). Payload-class satellites include a variety of spacecraft equipped with specific instruments for various scientific and technological missions. These include communications satellites like Starlink; space stations such as the ISS; scientific satellites like the Hubble; Earth observation satellites from companies like Planet Labs, Umbra, and HawkEye 360; GPS; miniature CubeSats for education and research; and military/defense satellites.

Loading next visibility...
Identifier
67679, 2026-023F
Orbit
SSO
Country
Flag of CISCIS
Related business
Manufacturer
Unknown (RU)
Mission
Operational Defense Imaging
Bus & Motor
UNK, Unknown motor
Mass
~500 kg wet, ~500 kg dry
Launch date (UTC)
2026-02-05 (4 months ago)
Launch vehicle
SOYUZ-2-1B
Launch site
Plesetsk Missile And Space Complex (PKMTR)
Object type
Payload
Rocket body
Debris
Shape & HBR
Cyl + 2 Pan, 0.3 m
Radar Cross Section
3.727 m², Medium (>0.1 m² and < 1m²)

Expand to show TLE details & history
Last TLE update: 10 hours ago

TLE from 10 hours ago
0 COSMOS 2605
1 67679U 26023F   26171.44399015  .00010105  00000-0  39831-3 0  9994
2 67679  96.6217 235.0554 0021396 114.5814 245.7659 15.25524382 20497
Epoch: 2026-06-20T10:39Z
TLE epoch observation values (Epoch: 2026-06-20T10:39:20.748Z)
Latitude
-0.00004°
Longitude
166.56043°
Altitude
498.389 km
Speed
7.612 km/s
True Right ascension
15h 40m 13s
True Declination
0° 00' 00"
Sunlit
Object was in full shadow at epoch
Visualization orbit readout
Latitude
Unknown
Longitude
Unknown
Altitude
Unknown
Speed
Unknown
Apparent Right ascension
Unknown
Apparent Declination
Unknown
Sunlit
N/A
Visualization observer readout
Local Sidereal Time
07:19:51
Azimuth
Unknown
Elevation
Unknown
Doppler factor
Unknown
Orbital elements
Apogee altitude
500.825 km
Perigee altitude
471.451 km
Semi-major axis
6,864.275 km
Eccentricity
0.00214
Inclination
96.6217°
RAAN
235.0554°
Arg. of periapsis
114.5814°
True anomaly
245.54257°
Mean anomaly
245.7659°
Eccentric anomaly
245.65421°
Mean motion
3.81638 °/min
Orbital period
94.33 mins
BSTAR
0.00039831
Loading maneuver chart data...
Computing Atmospheric mass density...
Loading historical data...
Loading historical data...
Loading historical data...
Loading historical data...
Loading historical data...
Loading historical data...
Loading historical data...

Documentation

Showing up to 5 results
|